Weather History for West Palm Beach, FL

Change the Weather History Date:

Wednesday, September 12, 2012

  Actual Average Record
Temperature  
Mean Temperature 83 °F 82 °F  
Max Temperature 88 °F 89 °F 97 °F (1911)
Min Temperature 77 °F 75 °F 68 °F (1913)
Degree Days  
Heating Degree Days 0 0  
Month to date heating degree days 0 0  
Since 1 July heating degree days 0 0  
Cooling Degree Days 18 17  
Month to date cooling degree days 211 204  
Year to date cooling degree days 3115 2910  
Growing Degree Days 33 (Base 50)    
Moisture  
Dew Point 72 °F    
Average Humidity 72    
Maximum Humidity 85    
Minimum Humidity 59    
Precipitation  
Precipitation 0.29 in 0.28 in 4.47 in (2001)
Month to date precipitation 1.08 3.34  
Year to date precipitation 62.55 44.06  
Snow  
Snow 0.00 in - - ()
Month to date snowfall 0.0  
Since 1 July snowfall 0.0  
Since 1 September snowfall 0.0  
Snow Depth 0.00 in    
Sea Level Pressure  
Sea Level Pressure 30.04 in    
Wind  
Wind Speed 15 mph (ENE)    
Max Wind Speed 28 mph    
Max Gust Speed 36 mph    
Visibility 9 miles    
Events Rain    
T = Trace of Precipitation, MM = Missing Value Source: NWS Daily Summary

Daily Weather History Graph

Daily Weather History Graph

Search for Another Location

Airport:

Trip Planner

Search our weather history database for the weather conditions in past years. The results will help you decide how hot, cold, wet, or windy it might be!

Date:

Astronomy

Sep. 12, 2012 Rise Set
Actual Time 7:04 AM EDT 7:27 PM EDT
Civil Twilight 6:41 AM EDT 7:50 PM EDT
Nautical Twilight 6:14 AM EDT 8:18 PM EDT
Astronomical Twilight 5:46 AM EDT 8:45 PM EDT
Moon 3:36 AM EDT (9/12) 5:01 PM EDT (9/12)
Length of Visible Light 13h 09m
Length of Day
12h 22m
Waning Crescent, 14% of the Moon is Illuminated
Sep 12
Waning Crescent
Sep 15
New
Sep 22
First Quarter
Sep 29
Full
Oct 8
Last Quarter

Hourly Weather History & Observations

Time (EDT) Temp. Heat Index Dew Point Humidity Pressure Visibility Wind Dir Wind Speed Gust Speed Precip Events Conditions
12:53 AM 82.9 °F 88.8 °F 73.0 °F 72% 30.06 in 10.0 mi NE 13.8 mph - N/A   Mostly Cloudy
1:53 AM 78.1 °F - 73.9 °F 87% 30.06 in 8.0 mi ESE 18.4 mph - 0.13 in Rain Rain
2:53 AM 81.0 °F 85.2 °F 72.0 °F 74% 30.04 in 10.0 mi ENE 11.5 mph - 0.01 in   Overcast
3:53 AM 81.0 °F 84.4 °F 70.0 °F 69% 30.02 in 10.0 mi ENE 11.5 mph - N/A   Mostly Cloudy
4:53 AM 81.0 °F 84.4 °F 70.0 °F 69% 30.01 in 10.0 mi ENE 10.4 mph - N/A   Scattered Clouds
5:53 AM 81.0 °F 84.1 °F 69.1 °F 67% 30.01 in 10.0 mi ENE 10.4 mph - N/A   Mostly Cloudy
6:53 AM 81.0 °F 84.4 °F 70.0 °F 69% 30.03 in 10.0 mi ENE 9.2 mph - N/A   Scattered Clouds
7:53 AM 82.0 °F 85.9 °F 70.0 °F 67% 30.05 in 10.0 mi ENE 8.1 mph - N/A   Scattered Clouds
8:53 AM 84.0 °F 87.8 °F 69.1 °F 61% 30.06 in 10.0 mi East 13.8 mph - N/A   Scattered Clouds
9:53 AM 84.9 °F 89.4 °F 70.0 °F 61% 30.06 in 10.0 mi ENE 13.8 mph 20.7 mph N/A   Scattered Clouds
10:53 AM 87.1 °F 93.6 °F 72.0 °F 61% 30.08 in 10.0 mi ENE 13.8 mph - N/A   Mostly Cloudy
11:39 AM 86.0 °F 91.8 °F 71.6 °F 62% 30.07 in 10.0 mi NNE 13.8 mph - N/A   Mostly Cloudy
11:49 AM 80.6 °F 86.2 °F 75.2 °F 84% 30.08 in 0.5 mi ENE 19.6 mph 35.7 mph 0.00 in Rain Heavy Rain
11:53 AM 79.0 °F - 73.9 °F 84% 30.08 in 0.5 mi NE 10.4 mph 35.7 mph 0.04 in Rain Heavy Rain
11:59 AM 78.8 °F - 75.2 °F 89% 30.08 in 1.0 mi NE 4.6 mph - 0.07 in Rain Heavy Rain
12:03 PM 78.8 °F - 75.2 °F 89% 30.07 in 4.0 mi NE 5.8 mph - 0.10 in Rain Heavy Rain
12:47 PM 78.8 °F - 73.4 °F 83% 30.07 in 10.0 mi ENE 17.3 mph 25.3 mph 0.11 in   Mostly Cloudy
12:53 PM 79.0 °F - 73.9 °F 84% 30.07 in 10.0 mi ENE 16.1 mph 21.9 mph 0.11 in   Mostly Cloudy
1:53 PM 86.0 °F 92.2 °F 72.0 °F 63% 30.05 in 10.0 mi ENE 15.0 mph - N/A   Mostly Cloudy
2:53 PM 88.0 °F 94.7 °F 72.0 °F 59% 30.03 in 10.0 mi NE 18.4 mph 24.2 mph N/A   Mostly Cloudy
3:53 PM 87.1 °F 94.5 °F 73.0 °F 63% 30.01 in 10.0 mi NE 18.4 mph - N/A   Mostly Cloudy
4:53 PM 86.0 °F 93.8 °F 73.9 °F 67% 30.00 in 10.0 mi NE 15.0 mph - N/A   Mostly Cloudy
5:53 PM 84.9 °F 92.1 °F 73.9 °F 69% 30.01 in 10.0 mi NE 15.0 mph - N/A   Mostly Cloudy
6:53 PM 84.0 °F 90.2 °F 73.0 °F 69% 30.01 in 10.0 mi NE 17.3 mph 27.6 mph N/A   Mostly Cloudy
7:53 PM 82.9 °F 88.8 °F 73.0 °F 72% 30.01 in 10.0 mi ENE 16.1 mph 24.2 mph N/A   Mostly Cloudy
8:53 PM 82.0 °F 87.9 °F 73.9 °F 76% 30.03 in 10.0 mi NE 12.7 mph 21.9 mph N/A   Mostly Cloudy
9:53 PM 82.9 °F 88.8 °F 73.0 °F 72% 30.04 in 10.0 mi NE 19.6 mph 26.5 mph N/A   Mostly Cloudy
10:53 PM 82.9 °F 88.8 °F 73.0 °F 72% 30.04 in 10.0 mi ENE 20.7 mph 26.5 mph N/A   Mostly Cloudy
11:53 PM 82.9 °F 88.0 °F 72.0 °F 69% 30.04 in 10.0 mi ENE 19.6 mph 28.8 mph N/A   Overcast